Weather History for Central Park, NY

Change the Weather History Date:

Friday, May 3, 2013

  Actual Average Record
Temperature  
Mean Temperature 58 °F 59 °F  
Max Temperature 66 °F 67 °F 90 °F (2001)
Min Temperature 49 °F 50 °F 36 °F (1874)
Degree Days  
Heating Degree Days 7 7  
Month to date heating degree days 18 22  
Since 1 July heating degree days 4508 4615  
Cooling Degree Days 0 1  
Month to date cooling degree days 0 3  
Year to date cooling degree days 2 15  
Growing Degree Days 7 (Base 50)    
Moisture  
Dew Point 39 °F    
Average Humidity 57    
Maximum Humidity 80    
Minimum Humidity 34    
Precipitation  
Precipitation 0.00 in 0.13 in 1.66 in (1985)
Month to date precipitation 0.00 0.37  
Year to date precipitation 11.22 15.97  
Snow  
Snow 0.00 in 0.00 in 0.00 in (2002)
Month to date snowfall 0.0 0.0  
Since 1 July snowfall 26.1 25.8  
Snow Depth 0.00 in    
Sea Level Pressure  
Sea Level Pressure 30.41 in    
Wind  
Wind Speed 7 mph (East)    
Max Wind Speed 17 mph    
Max Gust Speed 27 mph    
Visibility 10 miles    
Events      
T = Trace of Precipitation, MM = Missing Value Source: NWS Daily Summary

Daily Weather History Graph

Daily Weather History Graph

Search for Another Location

Airport:

Trip Planner

Search our weather history database for the weather conditions in past years. The results will help you decide how hot, cold, wet, or windy it might be!

Date:

Astronomy

May. 03, 2013 Rise Set
Actual Time 5:51 AM EDT 7:54 PM EDT
Civil Twilight 5:21 AM EDT 8:24 PM EDT
Nautical Twilight 4:45 AM EDT 9:01 PM EDT
Astronomical Twilight 4:05 AM EDT 9:41 PM EDT
Moon 2:16 AM EDT (5/3) 1:44 PM EDT (5/3)
Length of Visible Light 15h 02m
Length of Day
14h 02m
Last Quarter, 37% of the Moon is Illuminated
May 3
Last Quarter
May 9
New
May 18
First Quarter
May 25
Full
May 31
Last Quarter

Hourly Weather History & Observations

Time (EDT) Temp. Dew Point Humidity Pressure Visibility Wind Dir Wind Speed Gust Speed Precip Events Conditions
12:51 AM 55.9 °F 39.9 °F 55% 30.39 in 10.0 mi East 6.9 mph - N/A   Scattered Clouds
1:51 AM 54.0 °F 42.1 °F 64% 30.40 in 10.0 mi East 8.1 mph - N/A   Partly Cloudy
2:51 AM 54.0 °F 42.1 °F 64% 30.41 in 10.0 mi Variable 3.5 mph - N/A   Mostly Cloudy
3:51 AM 54.0 °F 39.9 °F 59% 30.42 in 10.0 mi ENE 11.5 mph - N/A   Mostly Cloudy
4:51 AM 52.0 °F 36.0 °F 54% 30.43 in 10.0 mi East 8.1 mph - N/A   Partly Cloudy
5:51 AM 52.0 °F 35.1 °F 53% 30.44 in 10.0 mi Variable 6.9 mph - N/A   Mostly Cloudy
6:51 AM 52.0 °F 35.1 °F 53% 30.45 in 10.0 mi East 9.2 mph 19.6 mph N/A   Mostly Cloudy
7:51 AM 52.0 °F 35.1 °F 53% 30.46 in 10.0 mi ENE 9.2 mph 18.4 mph N/A   Clear
8:51 AM 54.0 °F 36.0 °F 51% 30.46 in 10.0 mi East 8.1 mph - N/A   Clear
9:51 AM 55.0 °F 35.1 °F 47% 30.46 in 10.0 mi ENE 15.0 mph 24.2 mph N/A   Clear
10:51 AM 55.9 °F 35.1 °F 45% 30.46 in 10.0 mi East 9.2 mph 18.4 mph N/A   Clear
11:51 AM 60.1 °F 35.1 °F 39% 30.45 in 10.0 mi East 8.1 mph 18.4 mph N/A   Clear
12:51 PM 61.0 °F 33.1 °F 35% 30.43 in 10.0 mi East 9.2 mph - N/A   Clear
1:51 PM 64.0 °F 35.1 °F 34% 30.41 in 10.0 mi Variable 6.9 mph - N/A   Clear
2:51 PM 64.9 °F 36.0 °F 34% 30.40 in 10.0 mi ENE 8.1 mph 18.4 mph N/A   Clear
3:51 PM 61.0 °F 39.9 °F 46% 30.38 in 10.0 mi North - - N/A   Clear
4:51 PM 59.0 °F 39.0 °F 48% 30.38 in 10.0 mi Variable 3.5 mph - N/A   Clear
5:51 PM 57.0 °F 42.1 °F 57% 30.38 in 10.0 mi Variable 3.5 mph - N/A   Clear
6:51 PM 54.0 °F 41.0 °F 62% 30.38 in 10.0 mi Calm Calm - N/A   Clear
7:51 PM 52.0 °F 42.1 °F 69% 30.38 in 10.0 mi Variable 5.8 mph - N/A   Clear
8:51 PM 51.1 °F 42.1 °F 71% 30.40 in 10.0 mi South 4.6 mph - N/A   Clear
9:51 PM 51.1 °F 42.1 °F 71% 30.40 in 10.0 mi Variable 3.5 mph - N/A   Clear
10:51 PM 50.0 °F 43.0 °F 77% 30.39 in 10.0 mi South 4.6 mph - N/A   Clear
11:51 PM 48.9 °F 43.0 °F 80% 30.38 in 10.0 mi Calm Calm - N/A   Clear